Regional Weather Roundup
Issued by NWS

Home | Current Version | Previous Version | Text Only | Print | Product List | Glossary Off
Versions: 1 2 3 4 5 6 7 8 9 10 11 12 13 14 15 16 17 18 19 20 21 22 23 24 25 26 27 28 29 30 31 32 33 34 35 36 37 38 39 40 41 42 43 44 45 46 47 48 49 50

000
ASUS43 KLMK 261310
RWRKY
KENTUCKY REGIONAL WEATHER ROUNDUP
NATIONAL WEATHER SERVICE LOUISVILLE KY
900 AM EDT SUN APR 26 2015

NOTE "FAIR" INDICATES FEW OR NO CLOUDS BELOW 12,000 FEET
WITH NO SIGNIFICANT WEATHER AND/OR OBSTRUCTIONS TO VISIBILITY.

KYZ001>023-026-027-061>063-070>075-261400-
WESTERN AND SOUTH CENTRAL KENTUCKY

CITY           SKY/WX    TMP DP  RH WIND       PRES   REMARKS
PADUCAH        CLOUDY    50  46  86 N10       29.82R
HENDERSON      CLOUDY    46  41  81 NE14      29.82R
OWENSBORO      CLOUDY    49  44  83 NE13      29.82R
HOPKINSVILLE   CLOUDY    49  48  93 N10       29.78R
BOWLING GREEN  CLOUDY    49  45  86 NE7       29.78R
GLASGOW        CLOUDY    47  45  91 NE7       29.76R
$$

KYZ024-025-028>034-038-045-046-053-261400-
NORTH CENTRAL KENTUCKY

CITY           SKY/WX    TMP DP  RH WIND       PRES   REMARKS
LOUISVILLE/SDF CLOUDY    46  37  71 N12       29.82R
LOUISVILLE/LOU CLOUDY    45  36  70 N9        29.82R
FORT KNOX      CLOUDY    46  41  83 N9        29.79R
$$

KYZ035>037-039>044-047>052-055>060-089>105-261400-
NORTHEAST KENTUCKY

CITY           SKY/WX    TMP DP  RH WIND       PRES   REMARKS
LEXINGTON      MOSUNNY   45  37  73 NE12      29.78R
COVINGTON      MOSUNNY   45  33  63 N12       29.80R
FRANKFORT      PTSUNNY   45  36  70 N9        29.78R
$$

KYZ054-064>069-076>088-106>120-261400-
SOUTHEAST KENTUCKY

CITY           SKY/WX    TMP DP  RH WIND       PRES   REMARKS
JACKSON        CLOUDY    43  41  93 CALM      29.73R FOG
LONDON         CLOUDY    48  42  80 NE9       29.72R
SOMERSET       CLOUDY    45  45 100 NE9       29.75R
MIDDLESBORO    CLOUDY    54  52  92 N7        29.69R
MONTICELLO     CLOUDY    48  48 100 N8        29.77R
$$




USA.gov is the U.S. government's official web portal to all federal, state and local government web resources and services.